Time,TemperatureF,DewpointF,PressureIn,WindDirection,WindDirectionDegrees,WindSpeedMPH,WindSpeedGustMPH,Humidity,HourlyPrecipIn,Conditions,Clouds,dailyrainin,SoftwareType,DateUTC
2013-06-12 00:11:00,57.5,57.0,29.62,NNW,345,3.0,-999.0,97,-99.99,,,0.84,weatherlink.com 1.10,2013-06-12 04:11:00,
2013-06-12 00:26:00,57.6,57.0,29.62,NNW,332,0.0,-999.0,97,-99.99,,,0.85,weatherlink.com 1.10,2013-06-12 04:26:00,
2013-06-12 00:56:00,57.6,57.0,29.62,North,359,5.0,-999.0,97,-99.99,,,0.01,weatherlink.com 1.10,2013-06-12 04:56:00,
2013-06-12 01:11:00,57.5,56.0,29.63,NNW,348,12.0,-999.0,96,-99.99,,,0.02,weatherlink.com 1.10,2013-06-12 05:11:00,
2013-06-12 01:26:00,57.3,56.0,29.63,North,354,9.0,-999.0,96,-99.99,,,0.02,weatherlink.com 1.10,2013-06-12 05:26:00,
2013-06-12 01:41:00,56.9,56.0,29.63,North,351,10.0,-999.0,96,-99.99,,,0.02,weatherlink.com 1.10,2013-06-12 05:41:00,
2013-06-12 01:56:00,56.6,56.0,29.64,NNE,13,14.0,-999.0,96,-99.99,,,0.03,weatherlink.com 1.10,2013-06-12 05:56:00,
2013-06-12 02:11:00,56.4,55.0,29.64,NW,319,10.0,-999.0,95,-99.99,,,0.03,weatherlink.com 1.10,2013-06-12 06:11:00,
2013-06-12 02:26:00,56.1,55.0,29.65,NNW,347,4.0,-999.0,95,-99.99,,,0.03,weatherlink.com 1.10,2013-06-12 06:26:00,
2013-06-12 02:41:00,56.0,55.0,29.65,North,351,5.0,-999.0,96,-99.99,,,0.04,weatherlink.com 1.10,2013-06-12 06:41:00,
2013-06-12 02:56:00,55.7,54.0,29.65,North,8,10.0,-999.0,95,-99.99,,,0.04,weatherlink.com 1.10,2013-06-12 06:56:00,
2013-06-12 03:11:00,55.5,54.0,29.65,North,0,9.0,-999.0,95,-99.99,,,0.04,weatherlink.com 1.10,2013-06-12 07:11:00,
2013-06-12 03:26:00,55.3,54.0,29.66,NW,319,3.0,-999.0,95,-99.99,,,0.04,weatherlink.com 1.10,2013-06-12 07:26:00,
2013-06-12 03:41:00,55.2,54.0,29.66,NNW,333,5.0,-999.0,95,-99.99,,,0.04,weatherlink.com 1.10,2013-06-12 07:41:00,
2013-06-12 03:56:00,55.2,54.0,29.66,WNW,296,7.0,-999.0,95,-99.99,,,0.04,weatherlink.com 1.10,2013-06-12 07:56:00,
2013-06-12 04:11:00,55.2,54.0,29.66,North,1,2.0,-999.0,96,-99.99,,,0.04,weatherlink.com 1.10,2013-06-12 08:11:00,
2013-06-12 04:26:00,55.1,54.0,29.67,NW,313,4.0,-999.0,96,-99.99,,,0.04,weatherlink.com 1.10,2013-06-12 08:26:00,
2013-06-12 04:41:00,55.1,54.0,29.68,WNW,297,4.0,-999.0,95,-99.99,,,0.05,weatherlink.com 1.10,2013-06-12 08:41:00,
2013-06-12 04:57:00,55.2,54.0,29.68,North,352,10.0,-999.0,96,-99.99,,,0.05,weatherlink.com 1.10,2013-06-12 08:57:00,
2013-06-12 05:12:00,55.2,54.0,29.68,North,0,9.0,-999.0,96,-99.99,,,0.05,weatherlink.com 1.10,2013-06-12 09:12:00,
2013-06-12 05:27:00,55.3,54.0,29.69,North,349,7.0,-999.0,96,-99.99,,,0.07,weatherlink.com 1.10,2013-06-12 09:27:00,
2013-06-12 05:42:00,55.4,54.0,29.70,North,359,10.0,-999.0,96,-99.99,,,0.08,weatherlink.com 1.10,2013-06-12 09:42:00,
2013-06-12 05:57:00,55.6,55.0,29.70,NNW,348,10.0,-999.0,96,-99.99,,,0.08,weatherlink.com 1.10,2013-06-12 09:57:00,
2013-06-12 06:12:00,55.7,55.0,29.71,NNW,348,5.0,-999.0,96,-99.99,,,0.08,weatherlink.com 1.10,2013-06-12 10:12:00,
2013-06-12 06:27:00,55.8,54.0,29.71,NNE,14,5.0,-999.0,95,-99.99,,,0.08,weatherlink.com 1.10,2013-06-12 10:27:00,
2013-06-12 06:42:00,55.9,55.0,29.72,North,1,9.0,-999.0,95,-99.99,,,0.08,weatherlink.com 1.10,2013-06-12 10:42:00,
2013-06-12 06:57:00,56.0,55.0,29.73,North,2,9.0,-999.0,95,-99.99,,,0.08,weatherlink.com 1.10,2013-06-12 10:57:00,
2013-06-12 07:12:00,56.1,55.0,29.73,NNW,335,13.0,-999.0,95,-99.99,,,0.08,weatherlink.com 1.10,2013-06-12 11:12:00,
2013-06-12 07:27:00,56.3,55.0,29.74,North,355,7.0,-999.0,95,-99.99,,,0.08,weatherlink.com 1.10,2013-06-12 11:27:00,
2013-06-12 07:42:00,56.6,55.0,29.74,North,1,7.0,-999.0,95,-99.99,,,0.08,weatherlink.com 1.10,2013-06-12 11:42:00,
2013-06-12 07:57:00,56.4,55.0,29.74,North,8,13.0,-999.0,95,-99.99,,,0.09,weatherlink.com 1.10,2013-06-12 11:57:00,
2013-06-12 08:12:00,56.4,55.0,29.75,North,351,12.0,-999.0,94,-99.99,,,0.10,weatherlink.com 1.10,2013-06-12 12:12:00,
2013-06-12 08:27:00,56.4,55.0,29.75,North,0,9.0,-999.0,94,-99.99,,,0.10,weatherlink.com 1.10,2013-06-12 12:27:00,
2013-06-12 08:42:00,56.9,56.0,29.76,NNE,27,10.0,-999.0,95,-99.99,,,0.11,weatherlink.com 1.10,2013-06-12 12:42:00,
2013-06-12 08:57:00,57.5,56.0,29.76,North,0,7.0,-999.0,94,-99.99,,,0.11,weatherlink.com 1.10,2013-06-12 12:57:00,
2013-06-12 09:12:00,58.1,56.0,29.76,NNW,342,5.0,-999.0,92,-99.99,,,0.11,weatherlink.com 1.10,2013-06-12 13:12:00,
2013-06-12 09:27:00,57.8,56.0,29.76,NW,311,4.0,-999.0,93,-99.99,,,0.11,weatherlink.com 1.10,2013-06-12 13:27:00,
2013-06-12 09:42:00,58.2,56.0,29.76,North,356,11.0,-999.0,92,-99.99,,,0.11,weatherlink.com 1.10,2013-06-12 13:42:00,
2013-06-12 09:57:00,60.0,58.0,29.76,NNW,348,9.0,-999.0,92,-99.99,,,0.11,weatherlink.com 1.10,2013-06-12 13:57:00,
2013-06-12 10:12:00,60.5,57.0,29.77,North,359,15.0,-999.0,88,-99.99,,,0.11,weatherlink.com 1.10,2013-06-12 14:12:00,
2013-06-12 10:27:00,61.1,57.0,29.77,NW,319,10.0,-999.0,85,-99.99,,,0.11,weatherlink.com 1.10,2013-06-12 14:27:00,
2013-06-12 10:42:00,60.7,55.0,29.77,NNW,347,9.0,-999.0,81,-99.99,,,0.11,weatherlink.com 1.10,2013-06-12 14:42:00,
2013-06-12 10:58:00,60.9,55.0,29.78,North,359,14.0,-999.0,81,-99.99,,,0.11,weatherlink.com 1.10,2013-06-12 14:58:00,
2013-06-12 11:13:00,-999.0,-99.9,29.79,North,-999,-999.0,-999.0,-999,-99.99,,,0.11,weatherlink.com 1.10,2013-06-12 15:13:00,
2013-06-12 11:28:00,-999.0,-99.9,29.79,North,-999,-999.0,-999.0,-999,-99.99,,,0.11,weatherlink.com 1.10,2013-06-12 15:28:00,
2013-06-12 11:43:00,-999.0,-99.9,29.80,North,-999,-999.0,-999.0,-999,-99.99,,,0.11,weatherlink.com 1.10,2013-06-12 15:43:00,
2013-06-12 11:58:00,-999.0,-99.9,29.80,North,-999,-999.0,-999.0,-999,-99.99,,,0.11,weatherlink.com 1.10,2013-06-12 15:58:00,
2013-06-12 12:13:00,-999.0,-99.9,29.80,North,-999,-999.0,-999.0,-999,-99.99,,,0.11,weatherlink.com 1.10,2013-06-12 16:13:00,
2013-06-12 12:28:00,-999.0,-99.9,29.81,North,-999,-999.0,-999.0,-999,-99.99,,,0.11,weatherlink.com 1.10,2013-06-12 16:28:00,
2013-06-12 12:43:00,-999.0,-99.9,29.81,North,-999,-999.0,-999.0,-999,-99.99,,,0.11,weatherlink.com 1.10,2013-06-12 16:43:00,
2013-06-12 12:58:00,-999.0,-99.9,29.81,North,-999,-999.0,-999.0,-999,-99.99,,,0.11,weatherlink.com 1.10,2013-06-12 16:58:00,
2013-06-12 13:13:00,-999.0,-99.9,29.81,North,-999,-999.0,-999.0,-999,-99.99,,,0.11,weatherlink.com 1.10,2013-06-12 17:13:00,
2013-06-12 13:28:00,-999.0,-99.9,29.82,North,-999,-999.0,-999.0,-999,-99.99,,,0.11,weatherlink.com 1.10,2013-06-12 17:28:00,
2013-06-12 13:43:00,-999.0,-99.9,29.82,North,-999,-999.0,-999.0,-999,-99.99,,,0.11,weatherlink.com 1.10,2013-06-12 17:43:00,
2013-06-12 13:58:00,-999.0,-99.9,29.82,North,-999,-999.0,-999.0,-999,-99.99,,,0.11,weatherlink.com 1.10,2013-06-12 17:58:00,
2013-06-12 14:13:00,-999.0,-99.9,29.82,North,-999,-999.0,-999.0,-999,-99.99,,,0.11,weatherlink.com 1.10,2013-06-12 18:13:00,
2013-06-12 14:29:00,-999.0,-99.9,29.82,North,-999,-999.0,-999.0,-999,-99.99,,,0.11,weatherlink.com 1.10,2013-06-12 18:29:00,
2013-06-12 14:44:00,64.2,55.0,29.83,NNE,21,6.0,-999.0,73,-99.99,,,0.11,weatherlink.com 1.10,2013-06-12 18:44:00,
2013-06-12 14:59:00,64.1,55.0,29.83,North,4,7.0,-999.0,73,-99.99,,,0.11,weatherlink.com 1.10,2013-06-12 18:59:00,
2013-06-12 15:14:00,64.4,56.0,29.83,NNW,335,7.0,-999.0,75,-99.99,,,0.11,weatherlink.com 1.10,2013-06-12 19:14:00,
2013-06-12 15:29:00,65.9,57.0,29.82,NNW,330,13.0,-999.0,72,-99.99,,,0.11,weatherlink.com 1.10,2013-06-12 19:29:00,
2013-06-12 15:44:00,66.4,56.0,29.82,North,356,5.0,-999.0,70,-99.99,,,0.11,weatherlink.com 1.10,2013-06-12 19:44:00,
2013-06-12 15:59:00,-999.0,-99.9,29.82,North,-999,-999.0,-999.0,-999,-99.99,,,0.11,weatherlink.com 1.10,2013-06-12 19:59:00,
2013-06-12 16:14:00,-999.0,-99.9,29.82,North,-999,-999.0,-999.0,-999,-99.99,,,0.11,weatherlink.com 1.10,2013-06-12 20:14:00,
2013-06-12 16:29:00,-999.0,-99.9,29.82,North,-999,-999.0,-999.0,-999,-99.99,,,0.11,weatherlink.com 1.10,2013-06-12 20:29:00,
2013-06-12 16:44:00,-999.0,-99.9,29.82,North,-999,-999.0,-999.0,-999,-99.99,,,0.11,weatherlink.com 1.10,2013-06-12 20:44:00,
2013-06-12 16:59:00,-999.0,-99.9,29.82,North,-999,-999.0,-999.0,-999,-99.99,,,0.11,weatherlink.com 1.10,2013-06-12 20:59:00,
2013-06-12 17:14:00,-999.0,-99.9,29.82,North,-999,-999.0,-999.0,-999,-99.99,,,0.11,weatherlink.com 1.10,2013-06-12 21:14:00,
2013-06-12 17:29:00,-999.0,-99.9,29.82,North,-999,-999.0,-999.0,-999,-99.99,,,0.11,weatherlink.com 1.10,2013-06-12 21:29:00,
2013-06-12 17:44:00,-999.0,-99.9,29.82,North,-999,-999.0,-999.0,-999,-99.99,,,0.11,weatherlink.com 1.10,2013-06-12 21:44:00,
2013-06-12 17:59:00,-999.0,-99.9,29.82,North,-999,-999.0,-999.0,-999,-99.99,,,0.11,weatherlink.com 1.10,2013-06-12 21:59:00,
2013-06-12 18:15:00,-999.0,-99.9,29.82,North,-999,-999.0,-999.0,-999,-99.99,,,0.11,weatherlink.com 1.10,2013-06-12 22:15:00,
2013-06-12 18:30:00,-999.0,-99.9,29.82,North,-999,-999.0,-999.0,-999,-99.99,,,0.11,weatherlink.com 1.10,2013-06-12 22:30:00,
2013-06-12 18:45:00,-999.0,-99.9,29.82,North,-999,-999.0,-999.0,-999,-99.99,,,0.11,weatherlink.com 1.10,2013-06-12 22:45:00,
2013-06-12 19:00:00,-999.0,-99.9,29.83,North,-999,-999.0,-999.0,-999,-99.99,,,0.11,weatherlink.com 1.10,2013-06-12 23:00:00,
2013-06-12 19:15:00,-999.0,-99.9,29.83,North,-999,-999.0,-999.0,-999,-99.99,,,0.11,weatherlink.com 1.10,2013-06-12 23:15:00,
2013-06-12 19:30:00,-999.0,-99.9,29.84,North,-999,-999.0,-999.0,-999,-99.99,,,0.11,weatherlink.com 1.10,2013-06-12 23:30:00,
2013-06-12 19:45:00,-999.0,-99.9,29.84,North,-999,-999.0,-999.0,-999,-99.99,,,0.11,weatherlink.com 1.10,2013-06-12 23:45:00,
2013-06-12 20:00:00,-999.0,-99.9,29.84,North,-999,-999.0,-999.0,-999,-99.99,,,0.11,weatherlink.com 1.10,2013-06-13 00:00:00,
2013-06-12 20:15:00,-999.0,-99.9,29.84,North,-999,-999.0,-999.0,-999,-99.99,,,0.11,weatherlink.com 1.10,2013-06-13 00:15:00,
2013-06-12 20:30:00,-999.0,-99.9,29.85,North,-999,-999.0,-999.0,-999,-99.99,,,0.11,weatherlink.com 1.10,2013-06-13 00:30:00,
2013-06-12 20:45:00,-999.0,-99.9,29.85,North,-999,-999.0,-999.0,-999,-99.99,,,0.11,weatherlink.com 1.10,2013-06-13 00:45:00,
2013-06-12 21:00:00,-999.0,-99.9,29.84,North,-999,-999.0,-999.0,-999,-99.99,,,0.11,weatherlink.com 1.10,2013-06-13 01:00:00,
2013-06-12 21:15:00,-999.0,-99.9,29.85,North,-999,-999.0,-999.0,-999,-99.99,,,0.11,weatherlink.com 1.10,2013-06-13 01:15:00,
2013-06-12 21:30:00,-999.0,-99.9,29.85,North,-999,-999.0,-999.0,-999,-99.99,,,0.11,weatherlink.com 1.10,2013-06-13 01:30:00,
2013-06-12 21:46:00,-999.0,-99.9,29.86,North,-999,-999.0,-999.0,-999,-99.99,,,0.11,weatherlink.com 1.10,2013-06-13 01:46:00,
2013-06-12 22:01:00,-999.0,-99.9,29.86,North,-999,-999.0,-999.0,-999,-99.99,,,0.11,weatherlink.com 1.10,2013-06-13 02:01:00,
2013-06-12 22:16:00,-999.0,-99.9,29.86,North,-999,-999.0,-999.0,-999,-99.99,,,0.11,weatherlink.com 1.10,2013-06-13 02:16:00,
2013-06-12 22:31:00,-999.0,-99.9,29.86,North,-999,-999.0,-999.0,-999,-99.99,,,0.11,weatherlink.com 1.10,2013-06-13 02:31:00,
2013-06-12 22:46:00,-999.0,-99.9,29.86,North,-999,-999.0,-999.0,-999,-99.99,,,0.11,weatherlink.com 1.10,2013-06-13 02:46:00,
2013-06-12 23:01:00,-999.0,-99.9,29.86,North,-999,-999.0,-999.0,-999,-99.99,,,0.11,weatherlink.com 1.10,2013-06-13 03:01:00,
2013-06-12 23:16:00,-999.0,-99.9,29.85,North,-999,-999.0,-999.0,-999,-99.99,,,0.11,weatherlink.com 1.10,2013-06-13 03:16:00,
2013-06-12 23:31:00,-999.0,-99.9,29.85,North,-999,-999.0,-999.0,-999,-99.99,,,0.11,weatherlink.com 1.10,2013-06-13 03:31:00,
2013-06-12 23:49:00,-999.0,-99.9,29.84,North,-999,-999.0,-999.0,-999,-99.99,,,0.11,weatherlink.com 1.10,2013-06-13 03:49:00,